Helicity
-1 6 13 51 7 16 18 29 54 23 23 28 73 82 52 30 64 61 21 10 19 82 65 95 105 134 138 150 209 238 232 195 188 130 109 76 84 61 76 105 128 138 142 157
12 35 21 16 4 -7 9 18 41 8 -15 -2 10 58 47 -1 9 122 59 21 20 31 65 105 123 153 177 151 158 192 211 205 182 173 131 91 71 66 102 115 134 149 156 168
-15 17 46 21 5 6 18 -5 3 -13 -1 10 1 27 2 13 16 41 58 57 31 41 110 130 145 175 172 161 153 179 187 189 173 151 95 61 23 30 41 74 90 135 168 189
11 60 60 44 22 15 5 16 7 -3 -28 -25 -35 16 19 8 25 21 34 34 11 3 77 159 172 154 168 146 127 139 149 154 145 157 133 125 123 125 107 119 133 152 191 209
39 45 48 45 30 51 6 19 0 -9 -14 -25 10 8 35 3 25 42 50 45 23 6 107 179 188 163 142 122 104 83 101 109 116 137 146 138 109 98 99 94 110 127 137 180
27 53 45 32 67 70 39 17 15 9 -20 4 -2 -3 30 17 42 56 40 15 9 15 54 138 147 134 105 82 84 71 82 69 88 109 112 127 118 99 87 96 124 136 152 166
98 80 103 102 84 82 65 47 18 1 11 -5 16 -9 46 18 22 38 79 25 2 4 50 79 101 103 81 83 72 64 84 59 63 82 88 101 107 104 112 116 130 123 128 153
64 67 104 70 87 33 34 25 -3 -3 -1 20 27 -8 16 9 28 47 106 47 15 0 6 42 87 91 80 83 80 87 83 57 61 68 71 74 81 86 93 105 119 126 144 149
76 65 106 123 97 93 60 42 40 13 12 -8 -1 24 35 26 70 83 98 124 85 64 58 36 48 89 99 102 95 105 97 65 68 66 65 63 67 75 74 76 77 91 101 108
139 97 115 96 90 85 79 80 73 88 -1 3 19 25 38 51 63 85 143 141 88 73 60 56 68 72 92 106 101 94 91 86 64 64 67 53 59 60 49 37 42 68 77 91
66 111 95 123 62 64 123 128 91 73 47 -4 18 32 8 47 80 152 132 115 116 98 77 63 61 62 80 89 102 82 68 59 50 60 62 58 43 41 35 32 34 54 68 83
102 101 71 12 28 59 127 117 178 86 71 63 -3 37 59 69 56 95 146 116 97 103 83 79 78 81 83 90 93 83 74 80 61 69 81 59 54 51 33 28 35 53 72 79
135 147 86 99 110 139 100 112 111 144 115 37 38 10 33 35 44 61 73 106 87 70 78 86 99 101 89 95 97 98 101 93 92 112 103 89 69 70 44 42 46 56 69 73
188 185 156 99 38 51 77 133 172 147 88 82 55 48 82 99 89 82 91 85 85 83 96 110 111 102 96 104 115 118 108 121 140 150 141 123 95 84 79 79 76 81 85 80
158 165 140 95 54 22 36 52 68 94 98 78 21 53 48 -32 -4 46 54 73 116 96 111 131 139 128 127 131 125 132 130 148 182 188 184 145 112 132 137 129 116 110 100 80
131 149 133 64 68 42 3 10 23 62 65 41 49 -13 21 8 37 -25 0 68 75 139 144 148 163 174 158 165 172 150 162 177 239 229 211 177 192 212 188 180 155 145 114 89
187 190 231 43 78 74 -18 -17 35 86 138 153 84 104 116 80 92 42 -1 29 57 71 100 174 180 210 210 207 227 200 212 231 270 257 245 239 267 279 249 225 214 163 140 122
206 216 225 162 118 47 103 71 55 54 104 234 222 166 95 85 43 56 89 71 20 40 82 103 153 238 253 257 260 224 267 277 304 292 311 288 344 331 308 304 245 201 174 145
195 261 242 201 216 78 75 145 108 37 25 60 128 110 74 130 182 75 25 8 24 46 59 113 172 228 243 302 273 313 325 311 335 309 354 351 413 385 389 361 293 234 202 172
235 259 281 322 207 122 6 -73 64 88 28 27 97 113 95 171 139 108 194 204 153 104 94 90 105 154 210 244 333 384 347 375 384 379 394 407 468 443 450 394 339 275 226 170
272 388 315 286 234 128 125 214 122 98 53 79 53 76 88 133 179 194 128 93 117 96 96 108 87 140 163 201 339 341 359 400 401 442 453 467 456 468 448 419 386 289 223 190
217 264 366 377 295 44 109 197 140 224 166 69 26 -21 -15 30 72 79 96 97 83 92 104 86 97 95 91 136 238 245 314 327 414 535 502 438 441 472 477 429 357 291 231 198
178 288 277 264 346 450 281 53 90 47 21 34 56 22 29 15 85 52 36 31 34 38 62 64 68 68 57 82 150 208 245 344 401 433 415 425 466 471 441 405 333 291 219 208
236 193 199 172 156 206 156 100 26 46 45 72 72 65 5 2 15 10 11 70 112 121 96 87 94 86 82 73 96 151 220 310 392 407 417 426 429 422 392 346 289 249 224 196
310 273 195 130 117 171 162 98 79 53 27 44 55 16 12 -2 -7 1 94 67 55 41 59 67 74 88 85 82 109 135 174 295 369 376 362 374 379 371 343 277 244 218 167 167
-63 74 237 196 212 171 161 178 147 66 72 89 75 86 50 20 36 -13 -23 -12 1 16 48 93 108 109 109 120 121 141 166 233 290 317 347 334 338 330 302 289 267 184 151 149
Wind_Speed
39 36 37 36 41 36 37 38 39 38 39 44 53 57 60 64 68 66 64 63 62 62 58 53 52 51 49 46 45 45 43 41 40 40 40 38 35 32 28 24 20 17 14 12
42 45 43 33 37 40 41 42 43 39 40 46 51 59 64 66 68 70 66 64 64 62 63 59 55 55 54 52 49 49 49 48 47 45 43 40 35 31 27 24 21 18 16 13
50 43 26 38 42 43 43 45 47 47 48 52 52 56 53 61 71 69 69 65 64 66 64 60 57 55 53 52 53 52 52 50 49 46 43 39 35 31 26 23 19 18 15 12
51 30 31 38 47 43 49 43 44 47 46 49 41 51 51 52 68 71 71 70 67 66 63 57 55 54 53 52 51 50 49 49 47 46 43 40 36 31 26 22 18 15 13 9
41 35 39 45 48 40 47 43 48 49 51 51 51 53 53 52 62 73 74 71 70 67 61 55 53 52 51 49 50 49 48 47 45 44 41 37 33 29 23 18 13 9 7 6
50 37 39 35 35 39 41 49 50 49 49 56 53 59 55 58 66 68 73 73 70 70 62 50 46 44 46 45 46 47 47 46 44 42 40 37 32 26 20 15 10 6 7 9
51 45 37 35 43 42 43 47 54 53 55 58 47 56 64 54 56 63 68 72 68 65 41 36 49 43 41 41 42 42 43 43 41 39 36 33 29 22 17 12 7 5 8 12
39 48 28 31 42 47 45 48 55 59 57 55 48 57 52 48 63 63 10 41 45 48 46 42 34 40 39 36 34 32 35 35 34 33 31 27 23 18 14 9 5 4 8 13
43 44 34 30 38 40 47 58 46 57 57 59 57 58 63 53 44 42 19 12 21 20 21 29 24 27 31 29 30 31 28 28 27 27 23 21 17 14 11 8 5 8 14 19
43 50 40 39 42 45 47 43 57 57 63 67 61 60 64 44 46 41 21 18 16 15 15 16 16 21 21 23 24 23 24 26 23 21 18 15 14 11 8 5 7 13 19 24
43 52 48 41 50 54 52 60 56 55 61 62 61 58 45 53 58 28 19 18 18 16 16 18 18 19 20 17 20 22 21 20 18 17 15 13 10 8 5 4 6 13 21 25
37 47 61 64 57 50 55 58 59 71 69 69 65 66 43 47 48 42 28 26 22 17 16 16 16 17 19 20 20 21 19 19 18 16 14 15 10 7 6 3 5 13 21 28
32 54 72 66 57 52 64 63 63 67 66 83 77 70 45 44 43 36 34 32 31 24 19 18 16 18 20 19 20 20 20 20 18 16 16 15 14 10 9 3 6 16 24 31
36 52 61 76 59 44 61 66 70 74 91 95 107 86 71 49 38 34 37 39 36 30 24 21 20 21 23 23 23 22 21 20 18 18 18 19 18 16 11 4 8 18 26 35
44 64 69 79 81 79 79 80 73 89 100 102 87 112 103 96 71 63 54 44 35 31 28 27 26 25 26 25 23 22 22 21 20 20 21 22 20 16 11 8 10 18 28 35
53 60 69 97 87 94 109 104 98 95 99 113 115 125 81 79 81 82 74 64 54 35 32 32 31 30 31 30 29 27 26 26 23 24 25 22 20 18 16 13 13 20 29 36
64 64 65 103 78 90 113 114 107 100 99 98 121 113 90 91 92 102 95 75 67 56 38 35 35 36 36 36 33 34 32 28 28 28 26 25 23 22 20 17 18 23 29 36
74 68 66 82 62 102 92 69 72 87 93 85 113 104 97 88 89 90 77 81 78 65 56 44 40 41 39 38 38 38 35 34 34 33 31 29 28 27 23 21 22 25 31 35
74 75 78 78 82 104 108 76 67 74 91 80 85 88 105 96 87 98 70 70 71 78 76 63 47 43 44 43 41 42 43 42 40 39 37 35 33 31 28 27 26 28 33 37
79 77 83 78 86 101 72 59 84 85 123 78 82 86 87 75 85 87 74 71 78 78 76 73 60 51 47 44 44 46 48 48 49 46 43 40 37 36 34 31 29 32 34 38
89 95 105 103 109 108 86 82 50 72 71 50 43 56 63 65 67 72 64 59 53 48 49 54 60 56 50 47 46 49 49 52 51 48 45 43 40 39 36 33 32 33 35 39
96 94 109 106 115 139 72 72 96 79 69 57 54 50 45 43 46 50 53 48 44 56 61 59 60 59 57 52 44 48 52 49 48 46 45 43 41 38 35 34 34 35 37 43
131 109 97 93 121 91 79 71 72 72 84 100 104 87 78 74 66 60 61 56 54 59 64 61 61 63 62 56 46 45 45 43 41 40 41 41 39 36 35 35 35 38 39 45
106 100 118 114 117 113 110 114 110 97 97 92 86 77 75 76 75 74 71 69 69 72 70 64 65 65 65 56 50 47 44 38 37 38 38 36 35 35 34 33 33 37 41 46
99 101 111 128 126 110 94 94 96 99 99 96 92 80 79 76 76 75 74 71 72 75 75 69 68 68 67 58 51 47 42 35 36 36 34 32 32 31 32 32 34 38 41 44
96 95 111 124 112 109 96 89 91 97 99 92 92 99 93 86 90 84 82 79 81 82 77 73 71 68 65 55 48 43 37 32 32 33 32 31 30 29 31 33 38 39 43 43
Wind_Direction
223 232 237 241 219 256 263 257 247 254 246 241 233 233 236 231 218 213 208 208 204 195 190 179 176 171 168 164 161 161 157 155 151 158 161 165 167 164 163 158 153 149 142 129
246 230 232 280 276 274 268 257 252 258 255 258 248 240 240 231 222 204 202 204 205 204 194 183 176 172 170 170 167 165 165 163 164 164 167 163 159 163 162 160 157 154 150 139
250 273 324 291 280 276 265 257 255 254 265 263 251 243 238 232 218 208 204 203 204 203 188 179 173 170 167 168 168 165 167 166 166 164 161 158 161 163 146 146 144 153 150 146
270 306 310 300 276 278 259 269 268 264 259 239 256 234 242 237 216 214 206 202 207 200 185 173 169 168 168 168 166 165 164 164 165 161 159 158 159 159 154 146 138 132 120 122
288 301 295 287 279 288 268 277 269 267 260 255 245 237 238 240 226 208 207 203 205 199 178 170 167 167 167 164 166 166 165 164 164 162 162 161 165 167 164 156 155 142 118 97
284 303 299 301 301 292 285 271 271 268 256 241 241 234 240 235 217 217 214 206 199 202 180 168 164 162 164 162 162 164 165 166 165 164 165 167 168 166 162 158 149 121 78 54
287 290 298 298 286 287 279 266 248 246 241 239 259 237 236 243 243 222 198 196 191 184 162 159 167 164 162 161 162 161 164 166 164 165 166 167 168 162 163 157 140 87 45 33
300 288 292 296 279 270 266 260 247 243 244 251 257 241 246 263 235 238 251 166 167 168 168 166 162 165 165 162 161 159 162 163 162 164 167 165 166 165 164 156 120 61 26 19
293 292 299 296 286 274 265 255 269 256 258 254 249 255 258 261 261 259 256 212 170 173 172 166 165 166 166 165 166 165 164 165 165 167 165 167 166 164 164 151 82 40 26 22
289 287 290 289 283 275 272 275 255 254 249 246 249 253 244 263 259 259 247 190 198 211 191 187 183 172 172 172 170 170 171 172 172 171 172 172 172 168 154 92 62 33 23 20
284 280 285 287 273 269 267 261 262 261 254 251 253 253 271 266 254 269 242 211 202 214 204 190 183 180 178 181 180 180 182 181 183 182 182 183 181 173 148 105 46 26 17 15
282 286 276 276 283 281 272 266 258 251 252 253 256 251 278 280 275 270 262 251 242 231 221 211 202 192 188 188 189 191 193 192 192 190 190 189 189 182 173 145 31 15 10 8
292 279 271 275 280 279 267 265 263 262 262 250 250 251 277 287 290 286 271 263 255 251 241 229 228 211 198 197 195 195 195 195 194 193 193 195 195 194 190 191 5 2 1 1
295 281 273 265 276 285 268 267 262 257 250 249 240 253 258 274 296 302 287 275 264 256 243 229 223 216 205 199 198 199 200 200 199 197 198 199 200 199 204 243 338 352 355 354
288 280 275 272 271 272 272 268 265 254 251 249 258 243 251 251 270 282 290 284 276 261 244 231 230 226 219 215 214 213 213 210 209 207 207 207 206 210 223 264 313 338 346 348
283 285 281 267 272 270 265 264 262 260 256 250 251 244 266 270 272 271 273 279 277 268 255 247 241 239 233 229 228 229 226 221 220 218 218 218 217 222 232 260 295 325 337 342
280 281 281 266 276 274 263 257 260 261 260 259 250 251 265 266 268 260 263 275 277 278 274 256 248 242 239 236 237 235 237 237 228 229 232 230 231 234 243 262 294 313 327 335
271 275 276 274 279 262 265 277 269 263 263 264 261 266 267 272 273 272 276 274 275 279 280 273 259 253 248 248 248 250 249 242 236 236 239 240 243 244 252 267 286 305 321 328
261 266 270 269 267 266 262 269 271 269 268 271 270 273 255 268 275 269 277 279 278 276 278 282 275 260 252 250 247 249 249 245 245 242 244 245 247 248 253 266 281 300 314 323
258 258 260 266 265 263 276 279 266 269 259 279 279 278 274 276 270 273 281 280 278 279 279 280 282 279 270 256 255 252 250 248 244 243 249 253 249 251 255 265 280 299 310 318
253 253 253 257 260 264 265 269 292 262 273 292 296 294 288 277 277 280 286 287 286 287 291 293 290 282 274 271 263 255 253 249 245 257 258 256 254 254 258 268 284 295 305 316
256 255 254 255 257 256 271 272 260 270 279 289 288 300 308 307 299 292 292 292 290 290 293 296 295 293 290 283 271 262 256 253 262 260 257 256 256 259 262 269 283 294 304 313
254 253 258 257 258 262 271 275 279 279 276 273 270 281 287 287 289 291 294 293 292 295 295 297 298 296 293 291 283 276 271 271 265 261 259 260 260 258 262 269 279 292 302 310
258 260 258 262 263 264 266 267 268 277 275 278 279 284 283 282 284 287 289 288 288 292 295 298 297 297 297 297 292 286 284 275 267 265 265 262 256 261 265 272 281 292 301 308
268 270 265 260 263 268 271 270 269 270 275 277 276 279 279 283 285 287 286 289 290 291 293 295 296 298 297 299 296 294 289 279 272 268 266 262 262 262 267 274 283 293 302 309
267 267 264 261 269 269 272 277 276 276 273 274 275 275 277 280 280 282 284 287 289 290 292 292 294 296 297 298 297 296 291 280 273 271 267 265 264 266 272 280 293 301 308 312